Regional Weather Roundup
Issued by NWS New Orleans/Baton Rouge, LA

Current Version | Previous Version | Text Only | Print | Product List | Glossary On
Versions: 1 2 3 4 5 6 7 8 9 10 11 12 13 14 15 16 17 18 19 20 21 22 23 24 25 26 27 28 29 30 31 32 33 34 35 36 37 38 39 40 41 42 43 44 45 46 47 48 49 50
000
ASUS44 KLIX 172310
RWRLIX
NEW ORLEANS REGIONAL WEATHER ROUNDUP
NATIONAL WEATHER SERVICE NEW ORLEANS LA
500 PM CST WED DEC 17 2014

NOTE: "FAIR" INDICATES FEW OR NO CLOUDS BELOW 12,000 FEET WITH NO
      SIGNIFICANT WEATHER AND/OR OBSTRUCTIONS TO VISIBILITY.
      SKY/WX - SKY CONDITION AND SIGNIFICANT WEATHER.
      TMP - AIR TEMPERATURE.     DP    - DEWPOINT TEMPERATURE.
      RH  - RELATIVE HUMIDITY.   PRES  - PRESSURE.
      HI  - HEAT INDEX.          WCI   - WIND CHILL INDEX.

*  THESE STATIONS ARE NOT NWS OR FAA STATIONS AND ARE NOT UNDER
   NWS QUALITY CONTROL.

LAZ038-040-048-061>063-065>067-069-180000-
SOUTHEAST LOUISIANA

CITY           SKY/WX    TMP DP  RH WIND       PRES   REMARKS
N.O. AUDUBON     N/A     56  41  58 MISG        N/A
N.O. INTL ARPT MOCLDY    55  39  54 NE3       30.19S
N.O. LAKEFRONT PTCLDY    58  41  53 NE3       30.19F
N.O. DOWNTOWN*   N/A     57  37  47 NE5       30.19S
SLIDELL        PTCLDY    55  42  61 SW3       30.18F
BATON ROUGE    CLEAR     56  39  53 E6        30.17F
BOOTHVILLE     PTCLDY    56  49  77 N5        30.20R
BELLE CHASSE   MOCLDY    56  40  55 E6        30.18S
BOGALUSA*        N/A     56  43  61 CALM      30.20F
GALLIANO*      MOCLDY    59  46  60 MISG      30.19S
NEW ROADS*       N/A     56  40  53 CALM      30.18S
GONZALES*        N/A     57  41  54 CALM      30.18S
HAMMOND*       NOT AVBL
HOUMA*         PTCLDY    57  43  58 NE5       30.18R
PORT FOURCHON* CLEAR     59  48  67 NE9       30.21S

$$

MSZ070-080>082-180000-
SOUTHERN MISSISSIPPI

CITY           SKY/WX    TMP DP  RH WIND       PRES   REMARKS
MCCOMB         CLEAR     56  40  55 CALM      30.18S
GULFPORT       PTCLDY    54  41  61 CALM      30.19F
BILOXI         PTCLDY    53  42  64 W3        30.19S
PASCAGOULA     PTCLDY    52  40  63 CALM      30.20R
STENNIS ARPT*  CLEAR     52  41  66 CALM      30.20R

$$

COASTAL OBSERVATIONS
LAKE AND NEARSHORE STATIONS

STATION/POSITION TIME  TEMP    WIND        PRES    WAVE
                       AIR SEA DIR/SP/G            HT/PER
                 (UTC) (F)     (DEG/KT/KT) (MB)    (FT/S)
PASCAGOULA       2300   56     250/  4/  5 1021.9
WAVELAND YACHT   2300   54     220/  2/  2 1021.6
GRAND ISLE       2300   58 62   60/  7/ 10 1022.5
SOUTHWEST PASS   2300   60                 1022.1
NEW CANAL        2300   55 58   20/  2/  3 1022.6
SHELL BEACH      2300   55 60  360/  1/  2 1022.3

OFFSHORE STATIONS

STATION/POSITION TIME  TEMP    WIND        PRES    WAVE
                       AIR SEA DIR/SP/G            HT/PER
                 (UTC) (F)     (DEG/KT/KT) (MB)    (FT/S)
64 S DAUPHIN ISL 2300   60 74  360/  8/ 12 1021.5    2/ 5

$$




USA.gov is the U.S. government's official web portal to all federal, state and local government web resources and services.